Year,Month,Day,Hour,Minute,Value (Times are PST for temperature in C)
2015,06,23,00,00,11.70
2015,06,23,00,01,11.60
2015,06,23,00,02,11.60
2015,06,23,00,03,11.50
2015,06,23,00,04,11.50
2015,06,23,00,05,11.40
2015,06,23,00,06,11.40
2015,06,23,00,07,11.40
2015,06,23,00,08,11.30
2015,06,23,00,09,11.30
2015,06,23,00,10,11.30
2015,06,23,00,11,11.30
2015,06,23,00,12,11.30
2015,06,23,00,13,11.30
2015,06,23,00,14,11.40
2015,06,23,00,15,11.40
2015,06,23,00,16,11.40
2015,06,23,00,17,11.40
2015,06,23,00,18,11.50
2015,06,23,00,19,11.50
2015,06,23,00,20,11.50
2015,06,23,00,21,11.60
2015,06,23,00,22,11.60
2015,06,23,00,23,11.60
2015,06,23,00,24,11.60
2015,06,23,00,25,11.60
2015,06,23,00,26,11.60
2015,06,23,00,27,11.50
2015,06,23,00,28,11.50
2015,06,23,00,29,11.50
2015,06,23,00,30,11.50
2015,06,23,00,31,11.50
2015,06,23,00,32,11.60
2015,06,23,00,33,11.60
2015,06,23,00,34,11.60
2015,06,23,00,35,11.70
2015,06,23,00,36,11.70
2015,06,23,00,37,11.80
2015,06,23,00,38,11.80
2015,06,23,00,39,11.80
2015,06,23,00,40,11.80
2015,06,23,00,41,11.80
2015,06,23,00,42,11.70
2015,06,23,00,43,11.70
2015,06,23,00,44,11.70
2015,06,23,00,45,11.70
2015,06,23,00,46,11.60
2015,06,23,00,47,11.60
2015,06,23,00,48,11.50
2015,06,23,00,49,11.50
2015,06,23,00,50,11.50
2015,06,23,00,51,11.50
2015,06,23,00,52,11.50
2015,06,23,00,53,11.60
2015,06,23,00,54,11.50
2015,06,23,00,55,11.50
2015,06,23,00,56,11.40
2015,06,23,00,57,11.30
2015,06,23,00,58,11.30
2015,06,23,00,59,11.30
2015,06,23,01,00,11.20
2015,06,23,01,01,11.20
2015,06,23,01,02,11.20
2015,06,23,01,03,11.20
2015,06,23,01,04,11.10
2015,06,23,01,05,11.10
2015,06,23,01,06,11.20
2015,06,23,01,07,11.20
2015,06,23,01,08,11.20
2015,06,23,01,09,11.30
2015,06,23,01,10,11.30
2015,06,23,01,11,11.20
2015,06,23,01,12,11.20
2015,06,23,01,13,11.20
2015,06,23,01,14,11.20
2015,06,23,01,15,11.20
2015,06,23,01,16,11.20
2015,06,23,01,17,11.20
2015,06,23,01,18,11.20
2015,06,23,01,19,11.20
2015,06,23,01,20,11.10
2015,06,23,01,21,11.10
2015,06,23,01,22,11.00
2015,06,23,01,23,10.90
2015,06,23,01,24,10.80
2015,06,23,01,25,10.70
2015,06,23,01,26,10.70
2015,06,23,01,27,10.60
2015,06,23,01,28,10.60
2015,06,23,01,29,10.50
2015,06,23,01,30,10.40
2015,06,23,01,31,10.40
2015,06,23,01,32,10.30
2015,06,23,01,33,10.30
2015,06,23,01,34,10.20
2015,06,23,01,35,10.20
2015,06,23,01,36,10.10
2015,06,23,01,37,10.10
2015,06,23,01,38,10.00
2015,06,23,01,39,10.00
2015,06,23,01,40,9.90
2015,06,23,01,41,9.90
2015,06,23,01,42,9.80
2015,06,23,01,43,9.80
2015,06,23,01,44,9.70
2015,06,23,01,45,9.70
2015,06,23,01,46,9.60
2015,06,23,01,47,9.60
2015,06,23,01,48,9.50
2015,06,23,01,49,9.50
2015,06,23,01,50,9.50
2015,06,23,01,51,9.40
2015,06,23,01,52,9.40
2015,06,23,01,53,9.30
2015,06,23,01,54,9.30
2015,06,23,01,55,9.30
2015,06,23,01,56,9.20
2015,06,23,01,57,9.20
2015,06,23,01,58,9.20
2015,06,23,01,59,9.10
2015,06,23,02,00,9.10
2015,06,23,02,01,9.10
2015,06,23,02,02,9.10
2015,06,23,02,03,9.00
2015,06,23,02,04,9.00
2015,06,23,02,05,9.00
2015,06,23,02,06,9.00
2015,06,23,02,07,9.00
2015,06,23,02,08,9.00
2015,06,23,02,09,8.90
2015,06,23,02,10,8.90
2015,06,23,02,11,8.90
2015,06,23,02,12,8.90
2015,06,23,02,13,8.90
2015,06,23,02,14,8.90
2015,06,23,02,15,8.80
2015,06,23,02,16,8.80
2015,06,23,02,17,8.80
2015,06,23,02,18,8.80
2015,06,23,02,19,8.80
2015,06,23,02,20,8.80
2015,06,23,02,21,8.70
2015,06,23,02,22,8.70
2015,06,23,02,23,8.70
2015,06,23,02,24,8.70
2015,06,23,02,25,8.70
2015,06,23,02,26,8.70
2015,06,23,02,27,8.60
2015,06,23,02,28,8.60
2015,06,23,02,29,8.60
2015,06,23,02,30,8.60
2015,06,23,02,31,8.60
2015,06,23,02,32,8.60
2015,06,23,02,33,8.60
2015,06,23,02,34,8.60
2015,06,23,02,35,8.50
2015,06,23,02,36,8.50
2015,06,23,02,37,8.40
2015,06,23,02,38,8.40
2015,06,23,02,39,8.40
2015,06,23,02,40,8.40
2015,06,23,02,41,8.40
2015,06,23,02,42,8.40
2015,06,23,02,43,8.30
2015,06,23,02,44,8.30
2015,06,23,02,45,8.30
2015,06,23,02,46,8.30
2015,06,23,02,47,8.30
2015,06,23,02,48,8.30
2015,06,23,02,49,8.30
2015,06,23,02,50,8.30
2015,06,23,02,51,8.30
2015,06,23,02,52,8.30
2015,06,23,02,53,8.30
2015,06,23,02,54,8.30
2015,06,23,02,55,8.40
2015,06,23,02,56,8.40
2015,06,23,02,57,8.50
2015,06,23,02,58,8.50
2015,06,23,02,59,8.60
2015,06,23,03,00,8.60
2015,06,23,03,01,8.70
2015,06,23,03,02,8.70
2015,06,23,03,03,8.70
2015,06,23,03,04,8.70
2015,06,23,03,05,8.70
2015,06,23,03,06,8.70
2015,06,23,03,07,8.70
2015,06,23,03,08,8.70
2015,06,23,03,09,8.70
2015,06,23,03,10,8.70
2015,06,23,03,11,8.60
2015,06,23,03,12,8.60
2015,06,23,03,13,8.60
2015,06,23,03,14,8.60
2015,06,23,03,15,8.60
2015,06,23,03,16,8.60
2015,06,23,03,17,8.60
2015,06,23,03,18,8.50
2015,06,23,03,19,8.50
2015,06,23,03,20,8.40
2015,06,23,03,21,8.40
2015,06,23,03,22,8.40
2015,06,23,03,23,8.40
2015,06,23,03,24,8.40
2015,06,23,03,25,8.40
2015,06,23,03,26,8.30
2015,06,23,03,27,8.30
2015,06,23,03,28,8.30
2015,06,23,03,29,8.30
2015,06,23,03,30,8.30
2015,06,23,03,31,8.30
2015,06,23,03,32,8.30
2015,06,23,03,33,8.30
2015,06,23,03,34,8.20
2015,06,23,03,35,8.20
2015,06,23,03,36,8.20
2015,06,23,03,37,8.20
2015,06,23,03,38,8.20
2015,06,23,03,39,8.20
2015,06,23,03,40,8.20
2015,06,23,03,41,8.20
2015,06,23,03,42,8.20
2015,06,23,03,43,8.20
2015,06,23,03,44,8.20
2015,06,23,03,45,8.20
2015,06,23,03,46,8.20
2015,06,23,03,47,8.20
2015,06,23,03,48,8.30
2015,06,23,03,49,8.30
2015,06,23,03,50,8.30
2015,06,23,03,51,8.40
2015,06,23,03,52,8.40
2015,06,23,03,53,8.40
2015,06,23,03,54,8.50
2015,06,23,03,55,8.50
2015,06,23,03,56,8.60
2015,06,23,03,57,8.60
2015,06,23,03,58,8.70
2015,06,23,03,59,8.70
2015,06,23,04,00,8.70
2015,06,23,04,01,8.70
2015,06,23,04,02,8.80
2015,06,23,04,03,8.90
2015,06,23,04,04,8.90
2015,06,23,04,05,9.00
2015,06,23,04,06,9.00
2015,06,23,04,07,9.00
2015,06,23,04,08,9.00
2015,06,23,04,09,9.10
2015,06,23,04,10,9.30
2015,06,23,04,11,9.40
2015,06,23,04,12,9.50
2015,06,23,04,13,9.60
2015,06,23,04,14,9.70
2015,06,23,04,15,9.80
2015,06,23,04,16,9.90
2015,06,23,04,17,9.90
2015,06,23,04,18,10.00
2015,06,23,04,19,10.00
2015,06,23,04,20,10.00
2015,06,23,04,21,10.00
2015,06,23,04,22,10.00
2015,06,23,04,23,9.90
2015,06,23,04,24,9.90
2015,06,23,04,25,9.90
2015,06,23,04,26,9.90
2015,06,23,04,27,9.80
2015,06,23,04,28,9.80
2015,06,23,04,29,9.70
2015,06,23,04,30,9.60
2015,06,23,04,31,9.60
2015,06,23,04,32,9.50
2015,06,23,04,33,9.40
2015,06,23,04,34,9.30
2015,06,23,04,35,9.20
2015,06,23,04,36,9.10
2015,06,23,04,37,9.10
2015,06,23,04,38,9.00
2015,06,23,04,39,9.00
2015,06,23,04,40,8.90
2015,06,23,04,41,8.90
2015,06,23,04,42,8.90
2015,06,23,04,43,8.90
2015,06,23,04,44,8.90
2015,06,23,04,45,8.80
2015,06,23,04,46,8.80
2015,06,23,04,47,8.80
2015,06,23,04,48,8.80
2015,06,23,04,49,8.80
2015,06,23,04,50,8.80
2015,06,23,04,51,8.70
2015,06,23,04,52,8.60
2015,06,23,04,53,8.60
2015,06,23,04,54,8.50
2015,06,23,04,55,8.50
2015,06,23,04,56,8.40
2015,06,23,04,57,8.30
2015,06,23,04,58,8.30
2015,06,23,04,59,8.30
2015,06,23,05,00,8.20
2015,06,23,05,01,8.20
2015,06,23,05,02,8.10
2015,06,23,05,03,8.10
2015,06,23,05,04,8.10
2015,06,23,05,05,8.00
2015,06,23,05,06,8.00
2015,06,23,05,07,7.90
2015,06,23,05,08,7.90
2015,06,23,05,09,7.80
2015,06,23,05,10,7.80
2015,06,23,05,11,7.80
2015,06,23,05,12,7.80
2015,06,23,05,13,7.80
2015,06,23,05,14,7.90
2015,06,23,05,15,7.90
2015,06,23,05,16,7.90
2015,06,23,05,17,7.90
2015,06,23,05,18,7.80
2015,06,23,05,19,7.80
2015,06,23,05,20,7.70
2015,06,23,05,21,7.70
2015,06,23,05,22,7.60
2015,06,23,05,23,7.60
2015,06,23,05,24,7.60
2015,06,23,05,25,7.50
2015,06,23,05,26,7.50
2015,06,23,05,27,7.50
2015,06,23,05,28,7.50
2015,06,23,05,29,7.60
2015,06,23,05,30,7.60
2015,06,23,05,31,7.70
2015,06,23,05,32,7.80
2015,06,23,05,33,7.90
2015,06,23,05,34,7.90
2015,06,23,05,35,8.00
2015,06,23,05,36,8.00
2015,06,23,05,37,8.00
2015,06,23,05,38,7.90
2015,06,23,05,39,7.90
2015,06,23,05,40,7.90
2015,06,23,05,41,7.90
2015,06,23,05,42,7.90
2015,06,23,05,43,7.80
2015,06,23,05,44,7.80
2015,06,23,05,45,7.80
2015,06,23,05,46,7.70
2015,06,23,05,47,7.70
2015,06,23,05,48,7.70
2015,06,23,05,49,7.70
2015,06,23,05,50,7.60
2015,06,23,05,51,7.70
2015,06,23,05,52,7.70
2015,06,23,05,53,7.70
2015,06,23,05,54,7.70
2015,06,23,05,55,7.70
2015,06,23,05,56,7.70
2015,06,23,05,57,7.70
2015,06,23,05,58,7.70
2015,06,23,05,59,7.70
2015,06,23,06,00,7.70
2015,06,23,06,01,7.70
2015,06,23,06,02,7.70
2015,06,23,06,03,7.70
2015,06,23,06,04,7.70
2015,06,23,06,05,7.70
2015,06,23,06,06,7.70
2015,06,23,06,07,7.80
2015,06,23,06,08,7.80
2015,06,23,06,09,7.80
2015,06,23,06,10,7.80
2015,06,23,06,11,7.80
2015,06,23,06,12,7.80
2015,06,23,06,13,7.80
2015,06,23,06,14,7.90
2015,06,23,06,15,7.90
2015,06,23,06,16,8.00
2015,06,23,06,17,8.00
2015,06,23,06,18,8.00
2015,06,23,06,19,8.10
2015,06,23,06,20,8.10
2015,06,23,06,21,8.20
2015,06,23,06,22,8.20
2015,06,23,06,23,8.30
2015,06,23,06,24,8.40
2015,06,23,06,25,8.40
2015,06,23,06,26,8.50
2015,06,23,06,27,8.50
2015,06,23,06,28,8.60
2015,06,23,06,29,8.60
2015,06,23,06,30,8.60
2015,06,23,06,31,8.70
2015,06,23,06,32,8.70
2015,06,23,06,33,8.70
2015,06,23,06,34,8.80
2015,06,23,06,35,8.80
2015,06,23,06,36,8.90
2015,06,23,06,37,8.90
2015,06,23,06,38,9.00
2015,06,23,06,39,9.10
2015,06,23,06,40,9.20
2015,06,23,06,41,9.20
2015,06,23,06,42,9.30
2015,06,23,06,43,9.30
2015,06,23,06,44,9.40
2015,06,23,06,45,9.50
2015,06,23,06,46,9.60
2015,06,23,06,47,9.60
2015,06,23,06,48,9.60
2015,06,23,06,49,9.70
2015,06,23,06,50,9.70
2015,06,23,06,51,9.80
2015,06,23,06,52,9.80
2015,06,23,06,53,9.90
2015,06,23,06,54,10.00
2015,06,23,06,55,10.10
2015,06,23,06,56,10.20
2015,06,23,06,57,10.20
2015,06,23,06,58,10.30
2015,06,23,06,59,10.40
2015,06,23,07,00,10.50
2015,06,23,07,01,10.50
2015,06,23,07,02,10.60
2015,06,23,07,03,10.70
2015,06,23,07,04,10.70
2015,06,23,07,05,10.80
2015,06,23,07,06,10.90
2015,06,23,07,07,11.00
2015,06,23,07,08,11.00
2015,06,23,07,09,11.10
2015,06,23,07,10,11.20
2015,06,23,07,11,11.30
2015,06,23,07,12,11.40
2015,06,23,07,13,11.40
2015,06,23,07,14,11.50
2015,06,23,07,15,11.70
2015,06,23,07,16,11.80
2015,06,23,07,17,11.90
2015,06,23,07,18,12.10
2015,06,23,07,19,12.20
2015,06,23,07,20,12.30
2015,06,23,07,21,12.40
2015,06,23,07,22,12.50
2015,06,23,07,23,12.60
2015,06,23,07,24,12.70
2015,06,23,07,25,12.70
2015,06,23,07,26,12.70
2015,06,23,07,27,12.80
2015,06,23,07,28,12.90
2015,06,23,07,29,12.90
2015,06,23,07,30,13.00
2015,06,23,07,31,13.10
2015,06,23,07,32,13.20
2015,06,23,07,33,13.30
2015,06,23,07,34,13.40
2015,06,23,07,35,13.40
2015,06,23,07,36,13.50
2015,06,23,07,37,13.50
2015,06,23,07,38,13.60
2015,06,23,07,39,13.60
2015,06,23,07,40,13.70
2015,06,23,07,41,13.70
2015,06,23,07,42,13.70
2015,06,23,07,43,13.70
2015,06,23,07,44,13.60
2015,06,23,07,45,13.60
2015,06,23,07,46,13.50
2015,06,23,07,47,13.50
2015,06,23,07,48,13.40
2015,06,23,07,49,13.50
2015,06,23,07,50,13.50
2015,06,23,07,51,13.60
2015,06,23,07,52,13.60
2015,06,23,07,53,13.60
2015,06,23,07,54,13.70
2015,06,23,07,55,13.70
2015,06,23,07,56,13.80
2015,06,23,07,57,13.80
2015,06,23,07,58,13.80
2015,06,23,07,59,13.90
2015,06,23,08,00,13.90
2015,06,23,08,01,14.00
2015,06,23,08,02,14.10
2015,06,23,08,03,14.10
2015,06,23,08,04,14.20
2015,06,23,08,05,14.20
2015,06,23,08,06,14.20
2015,06,23,08,07,14.20
2015,06,23,08,08,14.30
2015,06,23,08,09,14.30
2015,06,23,08,10,14.30
2015,06,23,08,11,14.40
2015,06,23,08,12,14.40
2015,06,23,08,13,14.40
2015,06,23,08,14,14.50
2015,06,23,08,15,14.50
2015,06,23,08,16,14.60
2015,06,23,08,17,14.60
2015,06,23,08,18,14.60
2015,06,23,08,19,14.70
2015,06,23,08,20,14.70
2015,06,23,08,21,14.80
2015,06,23,08,22,14.80
2015,06,23,08,23,14.90
2015,06,23,08,24,15.00
2015,06,23,08,25,15.10
2015,06,23,08,26,15.20
2015,06,23,08,27,15.20
2015,06,23,08,28,15.30
2015,06,23,08,29,15.40
2015,06,23,08,30,15.40
2015,06,23,08,31,15.40
2015,06,23,08,32,15.40
2015,06,23,08,33,15.40
2015,06,23,08,34,15.20
2015,06,23,08,35,15.00
2015,06,23,08,36,14.80
2015,06,23,08,37,14.60
2015,06,23,08,38,14.40
2015,06,23,08,39,14.30
2015,06,23,08,40,14.20
2015,06,23,08,41,14.20
2015,06,23,08,42,14.20
2015,06,23,08,43,14.10
2015,06,23,08,44,14.10
2015,06,23,08,45,14.00
2015,06,23,08,46,13.90
2015,06,23,08,47,13.90
2015,06,23,08,48,13.80
2015,06,23,08,49,13.80
2015,06,23,08,50,13.80
2015,06,23,08,51,13.80
2015,06,23,08,52,13.80
2015,06,23,08,53,13.90
2015,06,23,08,54,13.90
2015,06,23,08,55,13.90
2015,06,23,08,56,13.90
2015,06,23,08,57,14.00
2015,06,23,08,58,14.10
2015,06,23,08,59,14.20
2015,06,23,09,00,14.30
2015,06,23,09,01,14.50
2015,06,23,09,02,14.60
2015,06,23,09,03,14.70
2015,06,23,09,04,14.90
2015,06,23,09,05,15.00
2015,06,23,09,06,15.10
2015,06,23,09,07,15.30
2015,06,23,09,08,15.30
2015,06,23,09,09,15.30
2015,06,23,09,10,15.20
2015,06,23,09,11,15.20
2015,06,23,09,12,15.20
2015,06,23,09,13,15.20
2015,06,23,09,14,15.20
2015,06,23,09,15,15.10
2015,06,23,09,16,15.00
2015,06,23,09,17,15.00
2015,06,23,09,18,15.00
2015,06,23,09,19,15.00
2015,06,23,09,20,15.10
2015,06,23,09,21,15.10
2015,06,23,09,22,15.10
2015,06,23,09,23,15.20
2015,06,23,09,24,15.20
2015,06,23,09,25,15.10
2015,06,23,09,26,15.00
2015,06,23,09,27,14.80
2015,06,23,09,28,14.70
2015,06,23,09,29,14.70
2015,06,23,09,30,14.70
2015,06,23,09,31,14.70
2015,06,23,09,32,14.70
2015,06,23,09,33,14.70
2015,06,23,09,34,14.80
2015,06,23,09,35,14.80
2015,06,23,09,36,14.70
2015,06,23,09,37,14.70
2015,06,23,09,38,14.70
2015,06,23,09,39,14.70
2015,06,23,09,40,14.70
2015,06,23,09,41,14.70
2015,06,23,09,42,14.60
2015,06,23,09,43,14.50
2015,06,23,09,44,14.50
2015,06,23,09,45,14.50
2015,06,23,09,46,14.60
2015,06,23,09,47,14.60
2015,06,23,09,48,14.70
2015,06,23,09,49,14.80
2015,06,23,09,50,15.00
2015,06,23,09,51,15.10
2015,06,23,09,52,15.20
2015,06,23,09,53,15.40
2015,06,23,09,54,15.60
2015,06,23,09,55,15.80
2015,06,23,09,56,15.80
2015,06,23,09,57,15.80
2015,06,23,09,58,15.90
2015,06,23,09,59,16.00
2015,06,23,10,00,16.00
2015,06,23,10,01,16.10
2015,06,23,10,02,16.20
2015,06,23,10,03,16.30
2015,06,23,10,04,16.30
2015,06,23,10,05,16.20
2015,06,23,10,06,16.20
2015,06,23,10,07,16.10
2015,06,23,10,08,16.00
2015,06,23,10,09,15.90
2015,06,23,10,10,15.80
2015,06,23,10,11,15.70
2015,06,23,10,12,15.60
2015,06,23,10,13,15.40
2015,06,23,10,14,15.30
2015,06,23,10,15,15.20
2015,06,23,10,16,15.10
2015,06,23,10,17,15.10
2015,06,23,10,18,15.10
2015,06,23,10,19,15.20
2015,06,23,10,20,15.20
2015,06,23,10,21,15.10
2015,06,23,10,22,15.10
2015,06,23,10,23,15.00
2015,06,23,10,24,14.90
2015,06,23,10,25,14.90
2015,06,23,10,26,14.90
2015,06,23,10,27,14.90
2015,06,23,10,28,14.90
2015,06,23,10,29,14.80
2015,06,23,10,30,14.80
2015,06,23,10,31,14.90
2015,06,23,10,32,14.90
2015,06,23,10,33,15.00
2015,06,23,10,34,15.00
2015,06,23,10,35,15.10
2015,06,23,10,36,15.20
2015,06,23,10,37,15.10
2015,06,23,10,38,15.00
2015,06,23,10,39,14.90
2015,06,23,10,40,14.70
2015,06,23,10,41,14.60
2015,06,23,10,42,14.60
2015,06,23,10,43,14.70
2015,06,23,10,44,14.80
2015,06,23,10,45,14.80
2015,06,23,10,46,14.80
2015,06,23,10,47,14.80
2015,06,23,10,48,14.90
2015,06,23,10,49,15.00
2015,06,23,10,50,15.10
2015,06,23,10,51,15.10
2015,06,23,10,52,15.10
2015,06,23,10,53,15.20
2015,06,23,10,54,15.20
2015,06,23,10,55,15.20
2015,06,23,10,56,15.00
2015,06,23,10,57,14.90
2015,06,23,10,58,14.90
2015,06,23,10,59,15.00
2015,06,23,11,00,15.00
2015,06,23,11,01,15.10
2015,06,23,11,02,15.10
2015,06,23,11,03,15.10
2015,06,23,11,04,15.20
2015,06,23,11,05,15.30
2015,06,23,11,06,15.40
2015,06,23,11,07,15.40
2015,06,23,11,08,15.30
2015,06,23,11,09,15.30
2015,06,23,11,10,15.40
2015,06,23,11,11,15.40
2015,06,23,11,12,15.40
2015,06,23,11,13,15.50
2015,06,23,11,14,15.60
2015,06,23,11,15,15.80
2015,06,23,11,16,15.90
2015,06,23,11,17,16.10
2015,06,23,11,18,16.20
2015,06,23,11,19,16.30
2015,06,23,11,20,16.40
2015,06,23,11,21,16.40
2015,06,23,11,22,16.30
2015,06,23,11,23,16.30
2015,06,23,11,24,16.30
2015,06,23,11,25,16.30
2015,06,23,11,26,16.40
2015,06,23,11,27,16.40
2015,06,23,11,28,16.40
2015,06,23,11,29,16.40
2015,06,23,11,30,16.50
2015,06,23,11,31,16.80
2015,06,23,11,32,17.00
2015,06,23,11,33,17.20
2015,06,23,11,34,17.40
2015,06,23,11,35,17.50
2015,06,23,11,36,17.60
2015,06,23,11,37,17.80
2015,06,23,11,38,17.90
2015,06,23,11,39,18.10
2015,06,23,11,40,18.20
2015,06,23,11,41,18.40
2015,06,23,11,42,18.50
2015,06,23,11,43,18.70
2015,06,23,11,44,18.90
2015,06,23,11,45,19.00
2015,06,23,11,46,19.10
2015,06,23,11,47,19.20
2015,06,23,11,48,19.20
2015,06,23,11,49,19.20
2015,06,23,11,50,19.30
2015,06,23,11,51,19.30
2015,06,23,11,52,19.40
2015,06,23,11,53,19.50
2015,06,23,11,54,19.60
2015,06,23,11,55,19.60
2015,06,23,11,56,19.70
2015,06,23,11,57,19.70
2015,06,23,11,58,19.60
2015,06,23,11,59,19.40
2015,06,23,12,00,19.20
2015,06,23,12,01,18.90
2015,06,23,12,02,18.70
2015,06,23,12,03,18.50
2015,06,23,12,04,18.50
2015,06,23,12,05,18.30
2015,06,23,12,06,18.40
2015,06,23,12,07,18.40
2015,06,23,12,08,18.30
2015,06,23,12,09,18.10
2015,06,23,12,10,18.10
2015,06,23,12,11,18.00
2015,06,23,12,12,17.90
2015,06,23,12,13,17.90
2015,06,23,12,14,17.80
2015,06,23,12,15,17.80
2015,06,23,12,16,17.80
2015,06,23,12,17,17.80
2015,06,23,12,18,17.80
2015,06,23,12,19,17.80
2015,06,23,12,20,17.90
2015,06,23,12,21,17.90
2015,06,23,12,22,18.00
2015,06,23,12,23,18.00
2015,06,23,12,24,18.10
2015,06,23,12,25,18.10
2015,06,23,12,26,18.20
2015,06,23,12,27,18.30
2015,06,23,12,28,18.50
2015,06,23,12,29,18.70
2015,06,23,12,30,18.70
2015,06,23,12,31,18.60
2015,06,23,12,32,18.30
2015,06,23,12,33,18.00
2015,06,23,12,34,17.80
2015,06,23,12,35,17.60
2015,06,23,12,36,17.50
2015,06,23,12,37,17.50
2015,06,23,12,38,17.40
2015,06,23,12,39,17.20
2015,06,23,12,40,17.00
2015,06,23,12,41,16.70
2015,06,23,12,42,16.20
2015,06,23,12,43,16.10
2015,06,23,12,44,16.00
2015,06,23,12,45,15.90
2015,06,23,12,46,15.90
2015,06,23,12,47,15.90
2015,06,23,12,48,16.00
2015,06,23,12,49,16.10
2015,06,23,12,50,16.30
2015,06,23,12,51,16.30
2015,06,23,12,52,16.40
2015,06,23,12,53,16.50
2015,06,23,12,54,16.50
2015,06,23,12,55,16.60
2015,06,23,12,56,16.60
2015,06,23,12,57,16.70
2015,06,23,12,58,16.60
2015,06,23,12,59,16.70
2015,06,23,13,00,16.60
2015,06,23,13,01,16.50
2015,06,23,13,02,16.40
2015,06,23,13,03,16.40
2015,06,23,13,04,16.40
2015,06,23,13,05,16.40
2015,06,23,13,06,16.50
2015,06,23,13,07,16.60
2015,06,23,13,08,16.70
2015,06,23,13,09,16.70
2015,06,23,13,10,16.70
2015,06,23,13,11,16.80
2015,06,23,13,12,16.80
2015,06,23,13,13,16.90
2015,06,23,13,14,16.90
2015,06,23,13,15,17.00
2015,06,23,13,16,17.10
2015,06,23,13,17,17.10
2015,06,23,13,18,17.20
2015,06,23,13,19,17.10
2015,06,23,13,20,17.10
2015,06,23,13,21,17.00
2015,06,23,13,22,16.90
2015,06,23,13,23,16.90
2015,06,23,13,24,16.90
2015,06,23,13,25,16.90
2015,06,23,13,26,17.00
2015,06,23,13,27,17.00
2015,06,23,13,28,16.90
2015,06,23,13,29,17.00
2015,06,23,13,30,17.10
2015,06,23,13,31,17.20
2015,06,23,13,32,17.20
2015,06,23,13,33,17.20
2015,06,23,13,34,17.20
2015,06,23,13,35,17.10
2015,06,23,13,36,16.90
2015,06,23,13,37,16.90
2015,06,23,13,38,16.80
2015,06,23,13,39,16.80
2015,06,23,13,40,16.90
2015,06,23,13,41,17.00
2015,06,23,13,42,17.10
2015,06,23,13,43,17.10
2015,06,23,13,44,16.90
2015,06,23,13,45,16.80
2015,06,23,13,46,16.70
2015,06,23,13,47,16.50
2015,06,23,13,48,16.20
2015,06,23,13,49,16.00
2015,06,23,13,50,15.90
2015,06,23,13,51,15.80
2015,06,23,13,52,15.70
2015,06,23,13,53,15.70
2015,06,23,13,54,15.60
2015,06,23,13,55,15.60
2015,06,23,13,56,15.70
2015,06,23,13,57,15.80
2015,06,23,13,58,15.90
2015,06,23,13,59,15.90
2015,06,23,14,00,15.80
2015,06,23,14,01,15.80
2015,06,23,14,02,15.80
2015,06,23,14,03,15.80
2015,06,23,14,04,15.90
2015,06,23,14,05,15.90
2015,06,23,14,06,15.80
2015,06,23,14,07,15.70
2015,06,23,14,08,15.60
2015,06,23,14,09,15.60
2015,06,23,14,10,15.70
2015,06,23,14,11,15.70
2015,06,23,14,12,15.70
2015,06,23,14,13,15.70
2015,06,23,14,14,15.80
2015,06,23,14,15,15.80
2015,06,23,14,16,15.80
2015,06,23,14,17,15.70
2015,06,23,14,18,15.60
2015,06,23,14,19,15.50
2015,06,23,14,20,15.50
2015,06,23,14,21,15.60
2015,06,23,14,22,15.70
2015,06,23,14,23,15.80
2015,06,23,14,24,15.90
2015,06,23,14,25,15.80
2015,06,23,14,26,15.60
2015,06,23,14,27,15.60
2015,06,23,14,28,15.60
2015,06,23,14,29,15.50
2015,06,23,14,30,15.30
2015,06,23,14,31,15.20
2015,06,23,14,32,15.10
2015,06,23,14,33,15.10
2015,06,23,14,34,15.00
2015,06,23,14,35,15.00
2015,06,23,14,36,15.10
2015,06,23,14,37,15.10
2015,06,23,14,38,15.20
2015,06,23,14,39,15.20
2015,06,23,14,40,15.30
2015,06,23,14,41,15.50
2015,06,23,14,42,15.60
2015,06,23,14,43,15.70
2015,06,23,14,44,15.70
2015,06,23,14,45,15.70
2015,06,23,14,46,15.70
2015,06,23,14,47,15.60
2015,06,23,14,48,15.40
2015,06,23,14,49,15.30
2015,06,23,14,50,15.30
2015,06,23,14,51,15.30
2015,06,23,14,52,15.30
2015,06,23,14,53,15.30
2015,06,23,14,54,15.30
2015,06,23,14,55,15.30
2015,06,23,14,56,15.30
2015,06,23,14,57,15.40
2015,06,23,14,58,15.50
2015,06,23,14,59,15.60
2015,06,23,15,00,15.60
2015,06,23,15,01,15.70
2015,06,23,15,02,15.70
2015,06,23,15,03,15.70
2015,06,23,15,04,15.80
2015,06,23,15,05,15.80
2015,06,23,15,06,15.90
2015,06,23,15,07,15.90
2015,06,23,15,08,15.90
2015,06,23,15,09,15.90
2015,06,23,15,10,15.80
2015,06,23,15,11,15.70
2015,06,23,15,12,15.70
2015,06,23,15,13,15.70
2015,06,23,15,14,15.70
2015,06,23,15,15,15.70
2015,06,23,15,16,15.70
2015,06,23,15,17,15.70
2015,06,23,15,18,15.70
2015,06,23,15,19,15.70
2015,06,23,15,20,15.80
2015,06,23,15,21,15.90
2015,06,23,15,22,15.80
2015,06,23,15,23,15.80
2015,06,23,15,24,15.70
2015,06,23,15,25,15.50
2015,06,23,15,26,15.50
2015,06,23,15,27,15.40
2015,06,23,15,28,15.30
2015,06,23,15,29,15.40
2015,06,23,15,30,15.40
2015,06,23,15,31,15.40
2015,06,23,15,32,15.30
2015,06,23,15,33,15.30
2015,06,23,15,34,15.10
2015,06,23,15,35,15.10
2015,06,23,15,36,15.20
2015,06,23,15,37,15.30
2015,06,23,15,38,15.50
2015,06,23,15,39,15.60
2015,06,23,15,40,15.70
2015,06,23,15,41,15.80
2015,06,23,15,42,15.80
2015,06,23,15,43,15.70
2015,06,23,15,44,15.50
2015,06,23,15,45,15.50
2015,06,23,15,46,15.30
2015,06,23,15,47,15.30
2015,06,23,15,48,15.30
2015,06,23,15,49,15.20
2015,06,23,15,50,15.20
2015,06,23,15,51,15.10
2015,06,23,15,52,15.00
2015,06,23,15,53,14.90
2015,06,23,15,54,14.90
2015,06,23,15,55,14.90
2015,06,23,15,56,14.90
2015,06,23,15,57,15.00
2015,06,23,15,58,15.10
2015,06,23,15,59,15.20
2015,06,23,16,00,15.30
2015,06,23,16,01,15.30
2015,06,23,16,02,15.30
2015,06,23,16,03,15.30
2015,06,23,16,04,15.40
2015,06,23,16,05,15.50
2015,06,23,16,06,15.60
2015,06,23,16,07,15.60
2015,06,23,16,08,15.60
2015,06,23,16,09,15.70
2015,06,23,16,10,15.80
2015,06,23,16,11,15.90
2015,06,23,16,12,15.90
2015,06,23,16,13,16.00
2015,06,23,16,14,16.00
2015,06,23,16,15,15.90
2015,06,23,16,16,15.80
2015,06,23,16,17,15.70
2015,06,23,16,18,15.60
2015,06,23,16,19,15.60
2015,06,23,16,20,15.70
2015,06,23,16,21,15.80
2015,06,23,16,22,15.80
2015,06,23,16,23,15.80
2015,06,23,16,24,15.80
2015,06,23,16,25,15.60
2015,06,23,16,26,15.50
2015,06,23,16,27,15.40
2015,06,23,16,28,15.30
2015,06,23,16,29,15.30
2015,06,23,16,30,15.30
2015,06,23,16,31,15.30
2015,06,23,16,32,15.30
2015,06,23,16,33,15.30
2015,06,23,16,34,15.30
2015,06,23,16,35,15.30
2015,06,23,16,36,15.30
2015,06,23,16,37,15.40
2015,06,23,16,38,15.50
2015,06,23,16,39,15.60
2015,06,23,16,40,15.70
2015,06,23,16,41,15.80
2015,06,23,16,42,16.00
2015,06,23,16,43,16.20
2015,06,23,16,44,16.40
2015,06,23,16,45,16.70
2015,06,23,16,46,16.90
2015,06,23,16,47,17.00
2015,06,23,16,48,17.20
2015,06,23,16,49,17.30
2015,06,23,16,50,17.40
2015,06,23,16,51,17.50
2015,06,23,16,52,17.70
2015,06,23,16,53,17.80
2015,06,23,16,54,17.90
2015,06,23,16,55,18.10
2015,06,23,16,56,18.20
2015,06,23,16,57,18.40
2015,06,23,16,58,18.60
2015,06,23,16,59,18.70
2015,06,23,17,00,18.90
2015,06,23,17,01,19.00
2015,06,23,17,02,19.10
2015,06,23,17,03,19.10
2015,06,23,17,04,19.20
2015,06,23,17,05,19.30
2015,06,23,17,06,19.50
2015,06,23,17,07,19.70
2015,06,23,17,08,19.90
2015,06,23,17,09,20.10
2015,06,23,17,10,20.30
2015,06,23,17,11,20.50
2015,06,23,17,12,20.70
2015,06,23,17,13,20.90
2015,06,23,17,14,21.10
2015,06,23,17,15,21.40
2015,06,23,17,16,21.70
2015,06,23,17,17,21.90
2015,06,23,17,18,22.20
2015,06,23,17,19,22.50
2015,06,23,17,20,22.80
2015,06,23,17,21,22.90
2015,06,23,17,22,23.10
2015,06,23,17,23,23.20
2015,06,23,17,24,23.30
2015,06,23,17,25,23.30
2015,06,23,17,26,23.30
2015,06,23,17,27,23.40
2015,06,23,17,28,23.40
2015,06,23,17,29,23.40
2015,06,23,17,30,23.40
2015,06,23,17,31,23.40
2015,06,23,17,32,23.40